• Em Portugal
  • Lista de países
  • Para 7 dias
  • Temperatura da água
  • Mapas de satélite
  • Mapa do tempo
  • Widgets de tempo
  • user-avatar
    Iniciar Sessão

    Previsão horária em Vlora

    Hoje, 27 Maio, Domingo

    Tempo Temperatura Precipitação Vento Pressão Humidade
    00:00 +22°C° 0 mm 4 m/s 763 mmHg 69%
    01:00 +22°C° 0 mm 4 m/s 763 mmHg 68%
    02:00 +21°C° 0 mm 4 m/s 762 mmHg 68%
    03:00 +21°C° 0 mm 4 m/s 762 mmHg 67%
    04:00 +21°C° 0 mm 3 m/s 762 mmHg 67%
    05:00 +22°C° 0 mm 3 m/s 762 mmHg 64%
    06:00 +25°C° 0 mm 3 m/s 762 mmHg 62%
    07:00 +26°C° 0 mm 3 m/s 762 mmHg 60%
    08:00 +28°C° 0 mm 3 m/s 762 mmHg 55%
    09:00 +29°C° 0 mm 3 m/s 763 mmHg 50%
    10:00 +31°C° 0 mm 3 m/s 763 mmHg 46%
    11:00 +32°C° 0 mm 4 m/s 763 mmHg 45%
    12:00 +32°C° 0 mm 4 m/s 763 mmHg 44%
    13:00 +33°C° 0 mm 5 m/s 762 mmHg 44%
    14:00 +32°C° 0 mm 5 m/s 762 mmHg 47%
    15:00 +32°C° 0 mm 5 m/s 762 mmHg 51%
    16:00 +32°C° 0 mm 5 m/s 762 mmHg 54%
    17:00 +29°C° 0 mm 5 m/s 762 mmHg 61%
    18:00 +27°C° 0 mm 4 m/s 762 mmHg 67%
    19:00 +25°C° 0 mm 4 m/s 762 mmHg 74%
    20:00 +25°C° 0 mm 3 m/s 762 mmHg 75%
    21:00 +24°C° 0 mm 3 m/s 762 mmHg 75%
    22:00 +24°C° 0 mm 3 m/s 763 mmHg 75%
    23:00 +22°C° 0 mm 3 m/s 763 mmHg 74%

    Amanhã, 28 Maio, Segunda-feira

    Tempo Temperatura Precipitação Vento Pressão Humidade
    00:00 +22°C° 0 mm 3 m/s 763 mmHg 73%
    01:00 +23°C° 0 mm 2 m/s 762 mmHg 72%
    02:00 +22°C° 0 mm 3 m/s 762 mmHg 71%
    03:00 +22°C° 0 mm 3 m/s 762 mmHg 70%
    04:00 +22°C° 0 mm 3 m/s 762 mmHg 70%
    05:00 +24°C° 0 mm 3 m/s 762 mmHg 67%
    06:00 +25°C° 0 mm 2 m/s 763 mmHg 64%
    07:00 +27°C° 0 mm 2 m/s 763 mmHg 61%
    08:00 +28°C° 0 mm 2 m/s 763 mmHg 58%
    09:00 +29°C° 0 mm 3 m/s 763 mmHg 54%
    10:00 +30°C° 0 mm 3 m/s 763 mmHg 51%
    11:00 +31°C° 0 mm 3 m/s 763 mmHg 51%
    12:00 +32°C° 0 mm 4 m/s 762 mmHg 52%
    13:00 +32°C° 0 mm 4 m/s 762 mmHg 52%
    14:00 +32°C° 0,1 mm 4 m/s 762 mmHg 55%
    15:00 +30°C° 0,1 mm 4 m/s 762 mmHg 58%
    16:00 +30°C° 0,1 mm 5 m/s 761 mmHg 62%
    17:00 +28°C° 0 mm 4 m/s 761 mmHg 67%
    18:00 +27°C° 0 mm 4 m/s 761 mmHg 72%
    19:00 +25°C° 0 mm 4 m/s 762 mmHg 78%
    20:00 +25°C° 0 mm 3 m/s 762 mmHg 78%
    21:00 +24°C° 0 mm 3 m/s 762 mmHg 78%
    22:00 +24°C° 0 mm 3 m/s 762 mmHg 79%
    23:00 +24°C° 0 mm 3 m/s 762 mmHg 78%

    Depois de amanhã, 29 Maio, Terça-feira

    Tempo Temperatura Precipitação Vento Pressão Humidade
    00:00 +22°C° 0 mm 3 m/s 762 mmHg 77%
    01:00 +22°C° 0 mm 3 m/s 762 mmHg 75%
    02:00 +22°C° 0 mm 3 m/s 762 mmHg 75%
    03:00 +22°C° 0 mm 3 m/s 761 mmHg 74%
    04:00 +21°C° 0 mm 3 m/s 761 mmHg 74%
    05:00 +24°C° 0 mm 2 m/s 761 mmHg 70%
    06:00 +25°C° 0 mm 2 m/s 761 mmHg 67%
    07:00 +27°C° 0 mm 2 m/s 761 mmHg 63%
    08:00 +28°C° 0 mm 2 m/s 761 mmHg 60%
    09:00 +29°C° 0 mm 2 m/s 761 mmHg 56%
    10:00 +31°C° 0 mm 2 m/s 761 mmHg 53%
    11:00 +31°C° 0 mm 2 m/s 761 mmHg 54%
    12:00 +31°C° 0 mm 3 m/s 761 mmHg 54%
    13:00 +31°C° 0 mm 3 m/s 761 mmHg 55%
    14:00 +31°C° 0 mm 3 m/s 760 mmHg 59%
    15:00 +30°C° 0 mm 3 m/s 760 mmHg 62%
    16:00 +29°C° 0 mm 2 m/s 760 mmHg 66%
    17:00 +28°C° 0 mm 2 m/s 760 mmHg 70%
    18:00 +27°C° 0 mm 2 m/s 760 mmHg 75%
    19:00 +26°C° 0 mm 2 m/s 760 mmHg 79%
    20:00 +25°C° 0 mm 1 m/s 760 mmHg 80%
    21:00 +25°C° 0 mm 1 m/s 760 mmHg 81%
    22:00 +24°C° 0 mm 1 m/s 760 mmHg 82%
    23:00 +24°C° 0 mm 1 m/s 760 mmHg 83%

    30 Maio, Quarta-feira

    Tempo Temperatura Precipitação Vento Pressão Humidade
    00:00 +23°C° 0 mm 1 m/s 760 mmHg 83%
    01:00 +23°C° 0 mm 1 m/s 759 mmHg 83%
    02:00 +23°C° 0 mm 1 m/s 759 mmHg 83%
    03:00 +23°C° 0 mm 1 m/s 759 mmHg 83%
    04:00 +23°C° 0 mm 1 m/s 759 mmHg 83%
    05:00 +24°C° 0 mm 1 m/s 759 mmHg 79%
    06:00 +25°C° 0 mm 1 m/s 760 mmHg 76%
    07:00 +26°C° 0 mm 1 m/s 760 mmHg 72%
    08:00 +27°C° 0 mm 2 m/s 760 mmHg 69%
    09:00 +28°C° 0 mm 2 m/s 760 mmHg 65%
    10:00 +29°C° 0 mm 3 m/s 760 mmHg 62%
    11:00 +30°C° 0 mm 3 m/s 760 mmHg 61%
    12:00 +30°C° 0 mm 3 m/s 760 mmHg 60%
    13:00 +32°C° 0 mm 4 m/s 759 mmHg 60%
    14:00 +30°C° 0 mm 3 m/s 759 mmHg 61%
    15:00 +30°C° 0 mm 3 m/s 759 mmHg 62%
    16:00 +30°C° 0 mm 3 m/s 759 mmHg 63%
    17:00 +28°C° 0 mm 3 m/s 759 mmHg 68%
    18:00 +27°C° 0 mm 3 m/s 759 mmHg 73%
    19:00 +25°C° 0 mm 3 m/s 759 mmHg 78%
    20:00 +25°C° 0 mm 2 m/s 759 mmHg 80%
    21:00 +24°C° 0 mm 2 m/s 759 mmHg 82%
    22:00 +23°C° 0 mm 2 m/s 760 mmHg 84%
    23:00 +23°C° 0 mm 2 m/s 759 mmHg 84%

    31 Maio, Quinta-feira

    Tempo Temperatura Precipitação Vento Pressão Humidade
    00:00 +21°C° 0 mm 2 m/s 759 mmHg 85%
    01:00 +22°C° 0 mm 1 m/s 759 mmHg 85%
    02:00 +22°C° 0 mm 1 m/s 759 mmHg 84%
    03:00 +21°C° 0 mm 2 m/s 759 mmHg 83%
    04:00 +21°C° 0 mm 2 m/s 759 mmHg 82%
    05:00 +23°C° 0 mm 2 m/s 759 mmHg 75%
    06:00 +25°C° 0 mm 2 m/s 759 mmHg 68%
    07:00 +26°C° 0 mm 2 m/s 759 mmHg 61%
    08:00 +28°C° 0 mm 3 m/s 759 mmHg 58%
    09:00 +29°C° 0 mm 3 m/s 759 mmHg 54%
    10:00 +30°C° 0 mm 3 m/s 759 mmHg 51%
    11:00 +30°C° 0 mm 3 m/s 759 mmHg 51%
    12:00 +32°C° 0 mm 4 m/s 759 mmHg 52%
    13:00 +32°C° 0 mm 4 m/s 759 mmHg 52%
    14:00 +31°C° 0 mm 3 m/s 759 mmHg 54%
    15:00 +30°C° 0 mm 3 m/s 758 mmHg 56%
    16:00 +30°C° 0 mm 3 m/s 758 mmHg 58%
    17:00 +28°C° 0 mm 2 m/s 758 mmHg 63%
    18:00 +27°C° 0 mm 2 m/s 759 mmHg 68%
    19:00 +25°C° 0 mm 1 m/s 759 mmHg 73%
    20:00 +24°C° 0 mm 1 m/s 759 mmHg 75%
    21:00 +24°C° 0 mm 1 m/s 759 mmHg 76%
    22:00 +23°C° 0 mm 1 m/s 759 mmHg 78%
    23:00 +23°C° 0 mm 1 m/s 759 mmHg 77%

    1 Junho, Sexta-feira

    Tempo Temperatura Precipitação Vento Pressão Humidade
    00:00 +22°C° 0 mm 1 m/s 759 mmHg 76%
    01:00 +22°C° 0 mm 1 m/s 759 mmHg 76%
    02:00 +21°C° 0 mm 2 m/s 759 mmHg 74%
    03:00 +20°C° 0 mm 2 m/s 759 mmHg 72%
    04:00 +20°C° 0 mm 2 m/s 759 mmHg 71%
    05:00 +23°C° 0 mm 2 m/s 759 mmHg 67%
    06:00 +25°C° 0 mm 2 m/s 759 mmHg 63%
    07:00 +26°C° 0 mm 2 m/s 760 mmHg 59%
    08:00 +27°C° 0 mm 3 m/s 760 mmHg 56%
    09:00 +29°C° 0 mm 3 m/s 760 mmHg 52%
    10:00 +30°C° 0 mm 4 m/s 760 mmHg 49%
    11:00 +30°C° 0 mm 4 m/s 759 mmHg 48%
    12:00 +32°C° 0 mm 5 m/s 759 mmHg 48%
    13:00 +32°C° 0 mm 5 m/s 759 mmHg 47%
    14:00 +32°C° 0 mm 5 m/s 759 mmHg 49%
    15:00 +30°C° 0 mm 5 m/s 759 mmHg 51%
    16:00 +30°C° 0 mm 5 m/s 759 mmHg 53%
    17:00 +28°C° 0 mm 5 m/s 759 mmHg 60%
    18:00 +26°C° 0 mm 4 m/s 759 mmHg 67%
    19:00 +23°C° 0 mm 4 m/s 759 mmHg 74%
    20:00 +23°C° 0 mm 4 m/s 759 mmHg 74%
    21:00 +22°C° 0 mm 3 m/s 759 mmHg 74%
    22:00 +21°C° 0 mm 3 m/s 760 mmHg 74%
    23:00 +21°C° 0 mm 3 m/s 760 mmHg 72%
    Mostrar mais